GW3154 Weather Reports


Display with metric or nautical units.
time (UTC)temp
F
wind
direction
speed
MPH
gust
MPH
rain 1hr
in
rain 24hr
in
rain mn
in
humidity
%
barometer
mb
20260508170305 59 206 6.0 8.0 0.00 0.00 0.00 68 1023.4
20260508164800 55 234 2.0 3.0 0.00 0.00 0.00 74 1023.3
20260508163258 55 197 1.0 2.0 0.00 0.00 0.00 77 1023.1
20260508161754 54 202 3.0 5.0 0.00 0.00 0.00 78 1022.8
20260508160253 53 171 2.0 3.0 0.00 0.00 0.00 82 1022.5
20260508154748 53 184 3.0 3.0 0.00 0.00 0.00 83 1023.1
20260508153246 53 155 3.0 3.0 0.00 0.00 0.00 83 1022.8
20260508151745 51 181 0.0 1.0 0.00 0.00 0.00 86 1022.8
20260508150242 50 160 2.0 3.0 0.00 0.00 0.00 90 1022.8
20260508144742 49 158 1.0 1.0 0.00 0.00 0.00 91 1022.8
20260508143240 49 181 0.0 0.0 0.00 0.00 0.00 91 1023.2
20260508141735 49 193 0.0 1.0 0.00 0.00 0.00 91 1023.0
20260508140233 48 178 2.0 3.0 0.00 0.00 0.00 91 1023.2
20260508134732 48 182 0.0 1.0 0.00 0.00 0.00 92 1022.6
20260508133230 48 195 0.0 1.0 0.00 0.00 0.00 93 1022.3
20260508131726 46 89 0.0 0.0 0.00 0.00 0.00 93 1022.1
20260508130223 46 101 0.0 0.0 0.00 0.00 0.00 92 1021.8
20260508124719 47 91 0.0 0.0 0.00 0.00 0.00 92 1021.6
20260508123217 47 85 0.0 0.0 0.00 0.00 0.00 92 1021.4
20260508121714 48 85 0.0 0.0 0.00 0.00 0.00 94 1021.1
20260508120213 48 172 0.0 0.0 0.00 0.00 0.00 94 1021.0
20260508114709 48 100 0.0 0.0 0.00 0.00 0.00 93 1020.9
20260508113207 49 195 0.0 0.0 0.00 0.00 0.00 93 1020.6
20260508111702 49 225 0.0 0.0 0.00 0.00 0.00 92 1020.6
20260508110200 49 178 1.0 1.0 0.00 0.00 0.00 92 1020.2
20260508104700 50 92 0.0 0.0 0.00 0.00 0.00 92 1019.9
20260508103157 49 78 0.0 0.0 0.00 0.00 0.00 92 1019.8
20260508101655 50 170 0.0 0.0 0.00 0.00 0.00 91 1019.9
20260508100154 50 177 0.0 1.0 0.00 0.00 0.00 91 1019.6
20260508094649 49 177 0.0 1.0 0.00 0.00 0.00 91 1019.5
20260508093147 50 170 0.0 0.0 0.00 0.00 0.00 91 1019.1
20260508091646 49 38 0.0 0.0 0.00 0.00 0.00 91 1019.2
20260508090143 49 38 0.0 0.0 0.00 0.00 0.00 90 1019.2
20260508084639 49 38 0.0 0.0 0.00 0.00 0.00 89 1019.1
20260508083137 50 38 0.0 0.0 0.00 0.00 0.00 88 1019.0
20260508081633 50 38 0.0 0.0 0.00 0.00 0.00 87 1018.8
20260508080131 50 38 0.0 0.0 0.00 0.00 0.00 87 1018.8
20260508074627 50 38 0.0 0.0 0.00 0.00 0.00 86 1018.9
20260508073125 51 38 0.0 0.0 0.00 0.00 0.00 86 1018.6
20260508071621 51 38 0.0 0.0 0.00 0.00 0.00 85 1018.6
20260508070121 52 38 0.0 0.0 0.00 0.00 0.00 82 1018.5
20260508064619 53 38 0.0 0.0 0.00 0.00 0.00 82 1018.5
20260508063118 53 38 0.0 0.0 0.00 0.00 0.00 81 1018.5
20260508061615 54 38 0.0 0.0 0.00 0.00 0.00 77 1018.4
20260508060112 54 38 0.0 0.0 0.00 0.00 0.00 78 1018.4
20260508054613 55 38 0.0 0.0 0.00 0.00 0.00 77 1018.3
20260508053110 56 38 0.0 0.0 0.00 0.00 0.00 75 1018.3
20260508051606 57 38 0.0 0.0 0.00 0.00 0.00 74 1018.5
20260508044558 58 38 0.0 0.0 0.00 0.00 0.00 74 1018.2
20260508043054 58 39 0.0 1.0 0.00 0.00 0.00 78 1018.2
20260508041550 57 39 0.0 0.0 0.00 0.00 0.00 77 1018.1
20260508040047 60 39 0.0 1.0 0.00 0.00 0.00 74 1017.8
20260508034543 61 40 0.0 0.0 0.00 0.00 0.00 69 1017.6
20260508033042 62 46 0.0 0.0 0.00 0.00 0.00 67 1017.3
20260508031538 63 46 0.0 0.0 0.00 0.00 0.00 64 1017.0
20260508030035 65 47 0.0 0.0 0.00 0.00 0.00 60 1017.1
20260508024535 66 47 0.0 0.0 0.00 0.00 0.00 57 1017.0
20260508023032 69 37 1.0 1.0 0.00 0.00 0.00 50 1017.0
20260508021532 69 62 1.0 1.0 0.00 0.00 0.00 46 1017.0
20260508020029 70 50 1.0 2.0 0.00 0.00 0.00 46 1017.1
20260508014526 71 90 0.0 0.0 0.00 0.00 0.00 44 1017.1
20260508013021 71 110 0.0 1.0 0.00 0.00 0.00 43 1017.5
20260508011520 72 356 2.0 2.0 0.00 0.00 0.00 43 1017.5
20260508010017 74 107 1.0 1.0 0.00 0.00 0.00 41 1017.6
20260508004513 73 47 0.0 1.0 0.00 0.00 0.00 41 1017.6
20260508003009 75 241 1.0 1.0 0.00 0.00 0.00 40 1017.7
20260508001504 73 223 1.0 1.0 0.00 0.00 0.00 44 1017.8
20260507235959 75 202 2.0 2.0 0.00 0.00 0.00 43 1017.9
20260507234456 75 181 0.0 0.0 0.00 0.00 0.00 41 1018.2
20260507232954 74 37 0.0 0.0 0.00 0.00 0.00 43 1018.3
20260507231454 75 221 0.0 0.0 0.00 0.00 0.00 40 1018.4
20260507225949 74 18 1.0 1.0 0.00 0.00 0.00 43 1018.6
20260507224444 75 59 1.0 1.0 0.00 0.00 0.00 44 1018.8
20260507222940 73 54 1.0 1.0 0.00 0.00 0.00 43 1018.9
20260507221436 73 55 2.0 2.0 0.00 0.00 0.00 42 1019.0
20260507215932 72 304 2.0 2.0 0.00 0.00 0.00 45 1019.4
20260507214430 72 121 0.0 1.0 0.00 0.00 0.00 48 1019.4
20260507212925 71 284 2.0 3.0 0.00 0.00 0.00 50 1019.6
20260507211420 71 88 0.0 0.0 0.00 0.00 0.00 51 1019.7
20260507205916 69 322 0.0 0.0 0.00 0.00 0.00 52 1019.9
20260507204412 70 61 0.0 0.0 0.00 0.00 0.00 52 1020.2
20260507202910 69 173 1.0 1.0 0.00 0.00 0.00 55 1020.5
20260507201409 68 159 1.0 1.0 0.00 0.00 0.00 57 1020.7
20260507195910 68 312 2.0 3.0 0.00 0.00 0.00 60 1020.7
20260507194407 67 298 2.0 2.0 0.00 0.00 0.00 58 1021.0
20260507192902 65 167 3.0 3.0 0.00 0.00 0.00 62 1021.0
20260507191357 66 101 0.0 0.0 0.00 0.00 0.00 64 1021.2
20260507185856 67 127 0.0 0.0 0.00 0.00 0.00 60 1021.2
20260507184353 67 224 0.0 0.0 0.00 0.00 0.00 62 1021.3
20260507182850 64 7 1.0 1.0 0.00 0.00 0.00 65 1021.5
20260507181349 62 24 0.0 2.0 0.00 0.00 0.00 71 1021.6
20260507175845 64 324 2.0 3.0 0.00 0.00 0.00 67 1021.7
20260507174343 62 186 0.0 0.0 0.00 0.00 0.00 69 1021.8
20260507172839 64 38 1.0 2.0 0.00 0.00 0.00 66 1021.8
20260507171335 61 58 0.0 0.0 0.00 0.00 0.00 71 1021.8